Location: Chassagnes
(44.4047°N, 4.1657°E)
Time: 23:28:51
(UTC+00:00)

USA 308 - Visible Passes

Search period start: 01 March 2021 00:00
Search period end: 11 March 2021 00:00
Orbit: 568 x 578 km, 54.0° (Epoch: 28 February)

Date Brightness Start Highest point End Pass type
(mag) Time Alt. Az. Time Alt. Az. Time Alt. Az.
01 Mar 4.4 18:23:38 10° W 18:27:27 31° NNW 18:31:17 10° NE visible
01 Mar 4.9 20:05:03 10° NW 20:07:49 22° N 20:07:49 22° N visible
02 Mar 4.6 18:26:06 10° WNW 18:29:45 26° NNW 18:33:24 10° NE visible
02 Mar 4.9 20:07:18 10° NW 20:09:55 22° N 20:09:55 22° N visible
03 Mar 4.7 18:28:34 10° WNW 18:32:04 24° N 18:35:33 10° NE visible
03 Mar 4.8 20:09:29 10° NW 20:11:59 23° NNW 20:11:59 23° NNW visible
04 Mar 4.7 18:30:59 10° WNW 18:34:24 22° N 18:37:48 10° NE visible
04 Mar 4.8 20:11:36 10° NW 20:14:03 25° NNW 20:14:03 25° NNW visible
05 Mar 4.7 18:33:20 10° NW 18:36:43 22° N 18:39:59 11° NE visible
05 Mar 4.6 20:13:39 10° NW 20:16:07 27° NNW 20:16:07 27° NNW visible
06 Mar 4.6 18:35:35 10° NW 18:39:03 23° N 18:42:03 12° ENE visible
06 Mar 4.5 20:15:42 10° NW 20:18:12 31° NNW 20:18:12 31° NNW visible
07 Mar 4.4 18:37:46 10° NW 18:41:21 25° NNE 18:44:09 14° ENE visible
07 Mar 4.4 20:17:43 10° NW 20:20:17 34° NW 20:20:17 34° NW visible
08 Mar 4.2 18:39:53 10° NW 18:43:38 29° NNE 18:46:16 16° ENE visible
08 Mar 4.3 20:19:46 10° NW 20:22:25 37° NW 20:22:25 37° NW visible
09 Mar 3.9 18:41:56 10° NW 18:45:52 34° NNE 18:48:26 18° ENE visible
09 Mar 4.3 20:21:52 10° WNW 20:24:35 36° WNW 20:24:35 36° WNW visible
10 Mar 3.5 18:43:57 10° NW 18:48:03 43° NNE 18:50:39 20° E visible
10 Mar 4.5 20:24:02 10° WNW 20:26:48 32° W 20:26:48 32° W visible
